Dewpoint
29 22 11 21 25 24 18 17 16 16 19 23 22 23 23 24 28 26 27 29 31 32 33 34 33 34 36 34 30 28 29 31 31 30 29 29 28 29 29 30 30 29 32 32
27 18 19 24 24 25 25 23 22 20 20 22 20 19 21 23 25 26 26 28 30 33 33 34 33 33 33 33 31 27 28 30 30 29 29 28 28 28 29 30 31 30 30 31
19 9 28 26 24 22 22 21 20 19 21 21 21 17 17 23 24 27 28 28 28 31 32 34 34 33 33 32 30 28 27 29 29 29 29 28 29 29 29 29 30 31 29 30
25 26 23 24 23 23 18 22 21 21 21 17 22 13 13 16 18 21 25 28 28 29 31 33 34 34 33 32 30 29 27 28 28 29 28 26 26 25 27 28 30 30 29 30
16 21 23 24 24 25 22 24 24 25 23 22 21 19 14 18 16 17 18 21 26 28 30 31 33 34 34 33 30 28 27 27 28 29 29 27 26 26 27 28 28 29 29 28
22 25 23 22 25 26 25 24 25 28 24 20 19 18 11 10 15 15 16 17 18 20 24 29 33 33 34 34 30 28 26 26 27 28 28 27 26 26 26 27 27 27 28 28
18 19 24 23 21 22 23 21 16 15 20 16 17 17 14 15 16 15 15 16 17 17 18 23 28 32 33 33 30 28 27 26 27 28 28 28 27 26 26 26 27 27 27 28
18 17 19 24 21 18 21 20 15 12 12 12 19 15 15 18 19 20 20 20 20 19 20 22 24 31 33 32 29 27 27 27 27 27 28 28 28 28 28 27 28 28 28 28
27 21 29 31 29 24 22 21 22 18 18 17 17 17 19 19 18 19 19 19 20 21 23 25 28 33 33 31 29 27 26 27 27 27 28 28 28 29 28 28 29 29 29 29
36 32 33 31 33 29 26 24 23 23 19 18 18 18 18 19 19 24 28 29 30 28 25 23 29 32 33 30 29 28 27 26 27 27 27 27 27 28 29 29 28 28 28 29
39 36 31 34 33 33 32 29 26 24 23 24 25 23 20 27 28 27 27 28 33 34 33 26 27 33 33 29 27 27 27 27 27 27 27 27 27 28 28 28 28 28 28 28
36 36 25 25 27 32 33 32 33 29 27 27 25 24 28 27 23 21 21 28 34 36 36 34 30 33 32 28 26 26 27 27 27 27 27 27 27 27 27 27 27 28 27 28
29 28 21 15 16 28 26 27 27 27 30 24 22 23 26 26 19 20 18 35 37 37 37 37 33 32 32 30 27 26 26 26 26 26 26 27 26 26 25 25 25 26 26 26
30 29 24 20 22 25 22 22 21 19 18 16 18 23 22 21 22 22 28 36 36 35 35 36 37 35 32 31 29 27 26 26 26 26 26 26 26 25 25 24 23 23 24 23
27 23 23 22 22 23 22 22 21 20 20 19 20 20 20 24 24 26 35 36 33 31 34 36 38 40 38 33 29 27 27 26 27 26 26 26 26 25 24 23 23 22 23 23
28 24 23 23 22 21 19 20 21 21 21 20 19 19 26 36 37 34 31 32 33 33 35 37 39 41 41 38 32 28 27 27 27 26 26 26 26 25 24 23 22 22 22 23
26 24 22 17 20 22 18 16 19 20 23 21 22 29 32 31 30 32 33 34 34 34 36 38 41 42 41 41 37 31 28 28 28 27 27 27 26 25 24 24 23 22 22 23
25 24 23 20 20 10 7 14 17 19 18 26 31 26 26 31 32 33 34 35 34 35 37 40 41 41 41 40 38 34 30 28 28 27 28 27 26 25 24 23 22 22 22 23
25 25 22 18 14 15 16 20 21 20 22 29 28 25 25 27 29 29 33 33 34 35 39 41 41 40 41 37 32 33 31 29 28 27 27 27 26 25 24 23 22 22 23 24
27 26 23 19 16 12 11 14 18 29 18 29 28 26 27 28 25 25 30 31 34 36 40 42 41 41 41 31 31 32 31 29 28 28 27 26 25 24 24 23 22 23 24 23
17 20 19 19 16 16 18 19 31 18 21 28 29 28 28 27 27 30 31 29 31 35 40 42 41 41 35 27 31 32 31 29 29 28 26 25 25 24 23 22 23 23 24 24
20 19 17 17 17 13 22 22 21 25 27 28 28 29 27 27 29 29 30 30 31 30 35 42 43 40 27 25 29 32 29 29 28 26 24 24 23 23 22 22 23 24 24 24
20 19 16 19 18 21 22 24 27 29 29 29 29 28 28 28 29 30 31 30 30 31 42 43 44 37 24 23 28 28 27 25 24 23 23 22 21 22 22 22 23 24 25 25
22 24 25 24 22 24 25 26 29 30 29 28 29 29 29 29 30 30 30 30 32 32 42 44 43 39 23 23 23 25 24 24 23 22 21 21 21 22 22 23 24 25 25 24
24 25 24 26 27 28 28 29 31 32 30 29 29 29 29 30 29 30 31 32 32 35 43 44 43 41 29 23 23 23 23 22 21 21 20 21 25 22 23 24 24 24 25 25
27 26 25 25 27 29 30 31 31 29 29 29 29 30 31 32 31 31 32 32 34 35 42 42 42 42 35 25 24 23 22 21 21 20 21 25 24 24 25 24 27 29 28 32
Wind_Speed
3 2 19 16 15 9 4 9 17 14 8 7 18 30 31 31 17 27 28 27 28 32 38 21 24 26 23 22 25 28 28 24 22 18 18 15 17 13 11 12 12 12 11 10
2 15 17 5 7 15 19 23 27 21 17 11 20 35 28 29 27 27 32 30 34 27 27 21 26 25 28 29 30 28 29 27 26 21 14 8 12 8 10 13 12 13 12 11
12 12 6 6 3 12 20 19 24 25 19 16 17 45 24 20 27 19 24 33 30 29 30 27 25 31 27 28 32 31 32 31 26 20 18 10 11 6 8 11 13 15 13 13
9 9 11 12 15 18 24 18 23 21 9 22 2 40 10 15 23 22 25 28 32 32 28 26 22 24 32 37 30 32 30 30 26 25 25 24 21 16 13 14 13 16 15 13
10 9 7 10 14 9 15 13 14 14 14 11 11 10 31 1 15 18 24 26 27 31 29 28 29 33 33 27 31 33 31 30 27 29 28 26 21 16 13 13 19 16 13 13
23 5 9 15 11 14 4 5 6 2 4 20 20 14 52 17 16 19 18 20 26 25 25 26 26 24 26 25 28 29 32 33 30 30 28 29 28 22 17 17 19 18 13 12
10 12 7 11 14 12 11 7 11 7 8 26 12 18 46 6 5 7 16 30 32 26 22 18 22 24 24 28 29 29 32 33 31 32 29 28 26 25 25 23 21 19 15 11
10 13 4 6 4 8 5 9 12 10 14 18 2 17 17 4 10 11 17 23 24 29 24 18 21 22 23 25 28 29 30 30 30 31 29 26 24 22 21 22 19 19 19 17
10 7 15 34 19 3 3 9 12 25 35 25 28 30 26 21 23 23 25 25 27 28 27 23 16 18 21 24 29 30 29 29 31 31 27 26 24 23 23 22 19 18 16 15
5 24 11 4 16 8 10 6 13 10 19 32 23 20 24 23 27 28 30 31 31 31 35 29 21 19 20 21 22 25 28 32 29 29 28 27 26 23 22 20 22 20 18 15
6 7 19 9 3 14 22 24 16 14 17 19 25 18 5 12 20 28 33 31 23 25 30 29 30 16 17 17 22 26 27 27 26 28 26 25 23 23 21 22 21 20 18 17
4 7 31 30 24 25 22 27 14 9 10 12 13 20 9 29 38 40 37 31 41 33 25 22 23 17 15 19 22 23 21 26 27 27 26 25 25 24 24 22 22 19 20 17
8 4 21 29 7 3 9 18 24 21 15 28 29 21 36 46 52 42 35 20 25 32 40 30 24 25 15 14 15 18 21 25 23 26 27 26 26 26 26 24 22 20 19 17
17 8 18 31 28 27 28 29 30 32 28 35 34 34 33 46 41 31 33 29 25 28 29 26 20 19 19 17 18 19 21 22 23 26 27 28 28 28 26 23 23 21 20 19
13 17 21 30 29 32 38 38 36 35 35 37 43 44 39 38 44 31 21 27 29 30 28 27 26 22 20 17 19 18 19 21 24 27 27 28 26 25 23 23 23 22 21 18
7 25 27 34 30 32 32 36 37 34 34 34 35 38 24 24 27 23 22 25 30 28 26 29 31 23 21 17 18 20 21 24 25 27 28 24 25 25 26 24 24 23 21 18
16 12 8 28 25 24 20 23 16 15 21 29 26 8 17 22 29 31 31 28 27 25 27 30 30 28 26 21 17 21 24 22 25 26 25 26 27 27 26 25 24 24 23 18
19 23 8 15 16 16 22 29 31 23 22 18 5 20 20 13 20 31 26 27 25 26 27 30 26 29 28 28 22 18 20 25 26 26 24 26 27 26 24 24 25 23 21 21
17 7 6 6 13 19 21 6 9 19 31 14 12 20 26 25 27 34 14 17 22 28 28 29 29 29 30 31 25 18 22 26 28 29 29 27 27 27 26 26 25 22 20 17
4 8 6 15 19 18 30 29 21 6 23 7 30 36 32 26 28 35 24 26 30 27 28 27 32 31 30 30 23 21 25 28 30 30 30 29 28 28 28 26 25 19 18 18
11 8 15 18 14 16 14 13 5 12 16 33 32 31 28 25 19 34 33 36 28 27 24 23 31 31 32 31 24 26 26 34 30 25 25 26 26 27 26 25 21 22 19 16
12 6 14 7 7 18 3 18 14 24 35 28 30 24 28 30 29 30 33 34 32 33 24 19 24 33 33 28 24 26 29 23 22 26 27 26 24 22 23 27 21 20 19 16
12 12 19 8 18 21 27 28 30 24 29 31 23 28 28 33 33 31 31 30 31 31 19 19 21 31 26 19 17 20 17 21 26 26 27 26 24 23 25 25 22 19 17 15
6 9 16 13 31 25 25 31 27 27 26 28 27 28 26 29 29 30 30 28 27 27 16 18 20 26 24 19 7 8 17 21 25 24 25 26 26 24 21 19 19 18 16 13
17 13 23 29 30 30 13 17 29 32 28 28 28 25 26 24 27 25 25 25 25 27 12 15 15 21 21 15 1 10 15 20 23 23 23 23 22 22 20 17 18 16 14 16
19 27 24 27 20 23 29 25 27 26 27 23 24 28 26 21 25 24 22 23 22 26 17 17 14 17 20 16 12 12 12 17 24 23 21 20 19 18 17 16 11 7 10 13
Wind_Direction
36 245 242 233 222 247 290 268 275 268 291 272 261 262 265 274 254 260 258 257 248 239 239 227 215 210 201 192 188 188 183 185 168 168 170 175 184 184 189 193 188 184 182 177
332 258 260 217 244 251 260 266 272 280 265 244 277 276 264 265 260 246 252 253 250 247 243 230 217 205 202 199 197 190 190 182 182 178 174 168 172 188 187 192 194 193 189 185
218 245 96 163 256 262 261 259 266 265 302 280 279 284 268 249 257 241 238 246 255 247 244 236 219 210 204 202 199 192 192 186 183 174 153 127 122 112 175 197 200 202 196 191
241 260 264 265 259 247 271 238 250 261 270 281 165 292 269 274 261 265 250 244 249 252 247 245 228 213 208 211 199 194 191 185 184 171 174 173 181 182 195 190 190 196 196 194
255 268 264 261 248 194 252 229 245 245 250 291 240 251 285 344 267 263 266 259 251 247 243 239 225 221 215 209 198 194 188 185 184 182 183 182 184 183 177 177 187 186 189 188
253 244 254 246 251 226 232 275 265 84 167 259 244 207 279 273 244 252 265 273 269 265 250 240 230 224 220 206 197 190 186 189 184 183 185 187 187 182 174 180 185 187 186 188
314 262 244 248 271 262 249 263 285 271 208 251 174 202 243 262 330 254 270 297 286 283 275 248 239 224 211 197 193 190 189 190 184 184 187 187 187 183 184 183 185 183 183 192
305 311 1 33 338 300 290 210 231 273 262 279 189 242 253 310 314 295 269 268 279 286 286 262 258 238 208 194 190 191 191 188 184 186 188 186 185 185 186 184 184 188 191 194
325 261 324 316 320 249 326 246 256 255 271 277 268 270 289 279 278 289 287 283 281 294 300 293 273 239 205 195 192 190 187 191 188 188 184 186 183 182 188 188 183 188 191 195
318 298 249 324 347 330 298 297 289 283 277 272 265 265 261 293 297 345 357 348 343 336 330 323 291 244 214 200 188 188 191 193 188 186 183 184 184 183 184 179 187 189 194 194
327 250 285 330 236 330 314 300 278 287 255 273 276 266 41 45 353 337 325 321 323 335 343 333 316 280 231 196 188 188 190 192 187 185 182 179 179 181 182 184 188 191 192 195
311 295 287 287 292 261 259 271 276 279 304 306 291 266 328 333 326 325 322 322 327 328 327 339 325 280 233 216 193 192 191 189 189 185 178 177 176 179 184 188 190 189 194 190
329 299 310 300 266 64 344 311 300 292 274 275 280 283 313 310 303 305 307 323 325 323 326 331 349 330 285 243 223 205 195 192 185 178 178 178 178 180 186 189 189 187 187 189
304 255 250 272 287 308 296 289 288 294 289 288 272 280 284 286 291 300 319 316 317 317 317 317 333 343 318 269 232 215 204 192 180 179 182 181 180 181 183 183 185 186 186 188
332 277 280 280 288 291 288 291 287 275 275 282 287 288 289 290 291 295 304 298 308 310 315 322 323 330 330 291 247 224 213 195 181 180 185 188 180 178 174 179 183 185 185 191
247 276 280 283 289 283 289 283 284 282 280 273 275 280 318 341 338 319 314 306 308 310 313 318 314 316 315 311 259 229 212 201 185 187 188 181 174 173 177 178 181 181 186 188
276 273 268 285 283 293 298 288 274 276 284 281 284 318 336 340 323 307 303 307 305 305 309 309 304 307 310 301 288 237 217 196 191 192 185 179 176 176 177 176 174 179 184 183
258 272 262 275 287 292 292 296 289 293 310 319 346 335 309 275 286 293 294 288 290 305 302 300 302 303 301 299 285 267 207 197 189 187 189 179 177 176 172 171 176 176 178 186
221 218 256 275 292 293 289 316 326 330 301 280 329 324 324 315 313 296 283 271 302 302 294 289 300 298 298 299 284 250 206 193 189 188 183 182 176 170 169 173 174 173 175 184
102 210 235 292 293 291 280 297 310 305 305 335 336 318 315 321 312 301 320 310 301 296 291 295 300 301 302 301 282 238 207 193 196 189 186 176 171 168 170 168 167 169 175 184
309 286 258 273 286 277 269 278 321 308 306 315 309 306 306 305 292 297 307 310 305 299 290 293 300 307 303 301 283 234 205 201 195 182 170 166 169 165 163 158 162 166 173 170
276 273 288 276 257 284 245 327 315 298 299 296 302 299 303 300 304 300 303 307 308 305 305 302 309 311 301 303 275 218 204 194 176 164 158 158 160 157 152 154 157 162 165 172
253 214 270 225 255 277 292 293 296 296 296 299 295 302 300 301 303 302 301 308 306 305 301 311 328 314 296 306 261 207 190 163 155 157 155 149 149 145 146 149 154 160 166 176
241 253 252 287 277 270 290 296 296 292 292 298 297 300 299 297 300 300 303 308 309 305 304 319 343 316 337 330 282 179 158 155 150 149 144 143 142 138 138 144 154 160 171 181
268 273 264 266 276 290 279 299 296 298 298 297 297 297 297 296 295 294 300 309 313 311 302 315 343 324 347 334 16 138 144 146 136 134 134 134 133 137 144 149 160 167 181 183
259 258 261 268 288 295 291 298 298 303 303 299 299 303 303 296 293 298 301 310 311 316 306 334 327 335 355 354 39 74 108 128 124 124 124 128 131 138 141 144 137 161 171 181